Time,TemperatureF,DewpointF,PressureIn,WindDirection,WindDirectionDegrees,WindSpeedMPH,WindSpeedGustMPH,Humidity,HourlyPrecipIn,Conditions,Clouds,dailyrainin,SoftwareType,DateUTC
2013-03-25 00:03:00,24.5,16.0,29.97,NE,45,2.7,5.4,70,0.00,,,0.00,WUHU216HW,2013-03-24 23:03:00,
2013-03-25 00:08:00,24.5,16.4,29.97,ENE,68,2.2,5.4,71,0.00,,,0.00,WUHU216HW,2013-03-24 23:08:00,
2013-03-25 00:13:00,24.3,16.6,29.97,NNE,23,2.2,5.4,72,0.00,,,0.00,WUHU216HW,2013-03-24 23:13:00,
2013-03-25 00:18:00,24.3,16.2,29.96,NNE,23,6.9,6.9,71,0.00,,,0.00,WUHU216HW,2013-03-24 23:18:00,
2013-03-25 00:23:00,24.5,16.4,29.96,NE,45,1.8,6.9,71,0.00,,,0.00,WUHU216HW,2013-03-24 23:23:00,
2013-03-25 00:28:00,24.7,16.6,29.96,ENE,68,5.4,6.9,71,0.00,,,0.00,WUHU216HW,2013-03-24 23:28:00,
2013-03-25 00:33:00,24.7,15.8,29.96,NNE,23,4.0,6.0,69,0.00,,,0.00,WUHU216HW,2013-03-24 23:33:00,
2013-03-25 00:38:00,24.5,15.8,29.96,ENE,68,5.1,6.0,69,0.00,,,0.00,WUHU216HW,2013-03-24 23:38:00,
2013-03-25 00:43:00,24.5,15.8,29.96,NE,45,1.8,5.1,69,0.00,,,0.00,WUHU216HW,2013-03-24 23:43:00,
2013-03-25 00:48:00,24.7,15.8,29.96,ENE,68,1.3,4.0,69,0.00,,,0.00,WUHU216HW,2013-03-24 23:48:00,
2013-03-25 00:53:00,24.7,15.6,29.96,ESE,113,3.4,3.6,68,0.00,,,0.00,WUHU216HW,2013-03-24 23:53:00,
2013-03-25 00:58:00,24.7,15.8,29.96,ESE,113,4.0,4.0,69,0.00,,,0.00,WUHU216HW,2013-03-24 23:58:00,
2013-03-25 01:03:00,24.5,15.8,29.96,ESE,113,6.3,6.3,69,0.00,,,0.00,WUHU216HW,2013-03-25 00:03:00,
2013-03-25 01:08:00,24.5,15.8,29.95,East,90,5.8,6.3,69,0.00,,,0.00,WUHU216HW,2013-03-25 00:08:00,
2013-03-25 01:13:00,24.5,15.8,29.95,East,90,4.5,6.3,69,0.00,,,0.00,WUHU216HW,2013-03-25 00:13:00,
2013-03-25 01:18:00,24.5,15.8,29.94,NNE,23,4.0,8.7,69,0.00,,,0.00,WUHU216HW,2013-03-25 00:18:00,
2013-03-25 01:23:00,24.5,15.8,29.95,NE,45,2.5,8.7,69,0.00,,,0.00,WUHU216HW,2013-03-25 00:23:00,
2013-03-25 01:28:00,24.5,15.8,29.95,NE,45,4.9,4.9,69,0.00,,,0.00,WUHU216HW,2013-03-25 00:28:00,
2013-03-25 01:33:00,24.3,15.9,29.94,ENE,68,3.8,4.9,70,0.00,,,0.00,WUHU216HW,2013-03-25 00:33:00,
2013-03-25 01:39:00,24.5,15.8,29.94,NE,45,6.5,6.5,69,0.00,,,0.00,WUHU216HW,2013-03-25 00:39:00,
2013-03-25 01:44:00,24.3,15.6,29.94,ENE,68,4.9,6.5,69,0.00,,,0.00,WUHU216HW,2013-03-25 00:44:00,
2013-03-25 01:49:00,24.3,15.6,29.94,NE,45,3.4,5.4,69,0.00,,,0.00,WUHU216HW,2013-03-25 00:49:00,
2013-03-25 01:54:00,24.3,15.9,29.94,NNE,23,4.7,8.7,70,0.00,,,0.00,WUHU216HW,2013-03-25 00:54:00,
2013-03-25 01:59:00,24.3,15.6,29.94,NE,45,5.8,8.7,69,0.00,,,0.00,WUHU216HW,2013-03-25 00:59:00,
2013-03-25 02:04:00,24.3,15.6,29.94,ENE,68,4.7,5.8,69,0.00,,,0.00,WUHU216HW,2013-03-25 01:04:00,
2013-03-25 02:09:00,24.3,15.6,29.93,SE,135,1.8,7.6,69,0.00,,,0.00,WUHU216HW,2013-03-25 01:09:00,
2013-03-25 02:14:00,24.5,15.8,29.94,NE,45,2.7,7.6,69,0.00,,,0.00,WUHU216HW,2013-03-25 01:14:00,
2013-03-25 02:19:00,24.3,15.6,29.93,ENE,68,3.6,3.8,69,0.00,,,0.00,WUHU216HW,2013-03-25 01:19:00,
2013-03-25 02:24:00,24.3,15.6,29.94,ESE,113,2.9,4.3,69,0.00,,,0.00,WUHU216HW,2013-03-25 01:24:00,
2013-03-25 02:29:00,24.3,15.6,29.93,NE,45,7.4,7.4,69,0.00,,,0.00,WUHU216HW,2013-03-25 01:29:00,
2013-03-25 02:34:00,24.1,15.4,29.93,NNE,23,3.4,7.4,69,0.00,,,0.00,WUHU216HW,2013-03-25 01:34:00,
2013-03-25 02:39:00,24.1,15.4,29.93,East,90,4.5,7.4,69,0.00,,,0.00,WUHU216HW,2013-03-25 01:39:00,
2013-03-25 02:44:00,23.9,15.2,29.93,North,0,4.7,4.9,69,0.00,,,0.00,WUHU216HW,2013-03-25 01:44:00,
2013-03-25 02:49:00,23.9,15.2,29.92,NNE,23,6.5,6.5,69,0.00,,,0.00,WUHU216HW,2013-03-25 01:49:00,
2013-03-25 02:54:00,23.9,15.2,29.92,NNE,23,6.9,6.9,69,0.00,,,0.00,WUHU216HW,2013-03-25 01:54:00,
2013-03-25 02:59:00,23.9,15.2,29.92,ESE,113,4.0,6.9,69,0.00,,,0.00,WUHU216HW,2013-03-25 01:59:00,
2013-03-25 03:04:00,23.9,15.2,29.92,ESE,113,4.0,4.0,69,0.00,,,0.00,WUHU216HW,2013-03-25 02:04:00,
2013-03-25 03:09:00,23.9,15.2,29.92,ESE,113,4.0,4.0,69,0.00,,,0.00,WUHU216HW,2013-03-25 02:09:00,
2013-03-25 03:14:00,23.9,15.2,29.91,ENE,68,5.4,5.4,69,0.00,,,0.00,WUHU216HW,2013-03-25 02:14:00,
2013-03-25 03:19:00,24.1,15.4,29.92,NNE,23,4.0,5.4,69,0.00,,,0.00,WUHU216HW,2013-03-25 02:19:00,
2013-03-25 03:24:00,24.1,15.4,29.92,NNE,23,4.0,5.4,69,0.00,,,0.00,WUHU216HW,2013-03-25 02:24:00,
2013-03-25 03:29:00,23.9,15.2,29.92,NE,45,3.4,4.0,69,0.00,,,0.00,WUHU216HW,2013-03-25 02:29:00,
2013-03-25 03:34:00,23.9,15.2,29.92,ENE,68,4.7,6.0,69,0.00,,,0.00,WUHU216HW,2013-03-25 02:34:00,
2013-03-25 03:39:00,23.9,15.2,29.92,NE,45,4.7,6.0,69,0.00,,,0.00,WUHU216HW,2013-03-25 02:39:00,
2013-03-25 03:44:00,23.9,15.2,29.92,East,90,3.6,6.3,69,0.00,,,0.00,WUHU216HW,2013-03-25 02:44:00,
2013-03-25 03:49:00,23.9,15.2,29.91,NE,45,0.9,6.3,69,0.00,,,0.00,WUHU216HW,2013-03-25 02:49:00,
2013-03-25 03:54:00,23.9,15.2,29.92,NE,45,4.5,4.5,69,0.00,,,0.00,WUHU216HW,2013-03-25 02:54:00,
2013-03-25 03:59:00,23.8,15.0,29.91,ENE,68,6.7,6.7,69,0.00,,,0.00,WUHU216HW,2013-03-25 02:59:00,
2013-03-25 04:04:00,23.8,15.4,29.91,NE,45,5.1,6.7,70,0.00,,,0.00,WUHU216HW,2013-03-25 03:04:00,
2013-03-25 04:09:00,23.6,15.2,29.91,NE,45,4.9,7.2,70,0.00,,,0.00,WUHU216HW,2013-03-25 03:09:00,
2013-03-25 04:14:00,23.6,14.9,29.92,NE,45,4.5,7.2,69,0.00,,,0.00,WUHU216HW,2013-03-25 03:14:00,
2013-03-25 04:19:00,23.6,15.2,29.91,ENE,68,2.0,5.4,70,0.00,,,0.00,WUHU216HW,2013-03-25 03:19:00,
2013-03-25 04:24:00,23.6,15.6,29.92,East,90,2.9,7.8,71,0.00,,,0.00,WUHU216HW,2013-03-25 03:24:00,
2013-03-25 04:29:00,23.6,15.6,29.92,NE,45,2.0,7.8,71,0.00,,,0.00,WUHU216HW,2013-03-25 03:29:00,
2013-03-25 04:34:00,23.4,15.4,29.92,ENE,68,6.0,6.3,71,0.00,,,0.00,WUHU216HW,2013-03-25 03:34:00,
2013-03-25 04:39:00,23.6,15.6,29.92,NNE,23,2.5,6.3,71,0.00,,,0.00,WUHU216HW,2013-03-25 03:39:00,
2013-03-25 04:44:00,23.4,15.4,29.91,NNE,23,1.6,6.0,71,0.00,,,0.00,WUHU216HW,2013-03-25 03:44:00,
2013-03-25 04:49:00,23.4,15.4,29.92,ENE,68,3.4,6.7,71,0.00,,,0.00,WUHU216HW,2013-03-25 03:49:00,
2013-03-25 04:54:00,23.4,15.4,29.92,ENE,68,4.0,6.7,71,0.00,,,0.00,WUHU216HW,2013-03-25 03:54:00,
2013-03-25 04:59:00,23.4,15.4,29.92,NNE,23,6.0,6.0,71,0.00,,,0.00,WUHU216HW,2013-03-25 03:59:00,
2013-03-25 05:00:00,23.4,15.4,29.92,NNE,23,6.0,6.0,71,0.00,,,0.00,WUHU216HW,2013-03-25 04:00:00,
2013-03-25 05:05:00,23.6,15.2,29.92,NE,45,4.3,6.0,70,0.00,,,0.00,WUHU216HW,2013-03-25 04:05:00,
2013-03-25 05:10:00,23.8,15.4,29.92,NE,45,2.9,7.2,70,0.00,,,0.00,WUHU216HW,2013-03-25 04:10:00,
2013-03-25 05:15:00,23.8,15.4,29.91,NE,45,4.0,7.2,70,0.00,,,0.00,WUHU216HW,2013-03-25 04:15:00,
2013-03-25 05:20:00,23.6,15.2,29.92,NNE,23,5.8,6.7,70,0.00,,,0.00,WUHU216HW,2013-03-25 04:20:00,
2013-03-25 05:25:00,23.4,15.4,29.91,East,90,4.5,6.7,71,0.00,,,0.00,WUHU216HW,2013-03-25 04:25:00,
2013-03-25 05:30:00,23.4,15.4,29.91,NE,45,2.7,6.0,71,0.00,,,0.00,WUHU216HW,2013-03-25 04:30:00,
2013-03-25 05:35:00,23.4,15.7,29.91,ENE,68,3.8,6.0,72,0.00,,,0.00,WUHU216HW,2013-03-25 04:35:00,
2013-03-25 05:40:00,23.2,15.6,29.91,ENE,68,6.5,6.5,72,0.00,,,0.00,WUHU216HW,2013-03-25 04:40:00,
2013-03-25 05:45:00,23.2,16.1,29.91,ENE,68,6.9,6.9,74,0.00,,,0.00,WUHU216HW,2013-03-25 04:45:00,
2013-03-25 05:50:00,23.2,16.5,29.92,NE,45,5.8,6.9,75,0.00,,,0.00,WUHU216HW,2013-03-25 04:50:00,
2013-03-25 05:55:00,23.0,16.3,29.91,NE,45,5.6,7.4,75,0.00,,,0.00,WUHU216HW,2013-03-25 04:55:00,
2013-03-25 06:00:00,23.0,16.3,29.92,NNE,23,3.1,7.4,75,0.00,,,0.00,WUHU216HW,2013-03-25 05:00:00,
2013-03-25 06:05:00,23.0,16.6,29.92,NNE,23,2.2,5.6,76,0.00,,,0.00,WUHU216HW,2013-03-25 05:05:00,
2013-03-25 06:10:00,23.0,16.9,29.92,ENE,68,4.9,7.4,77,0.00,,,0.00,WUHU216HW,2013-03-25 05:10:00,
2013-03-25 06:15:00,23.0,16.9,29.92,NE,45,4.5,7.4,77,0.00,,,0.00,WUHU216HW,2013-03-25 05:15:00,
2013-03-25 06:20:00,22.9,17.0,29.92,ENE,68,2.5,5.6,78,0.00,,,0.00,WUHU216HW,2013-03-25 05:20:00,
2013-03-25 06:25:00,22.9,17.0,29.92,NNE,23,2.2,5.6,78,0.00,,,0.00,WUHU216HW,2013-03-25 05:25:00,
2013-03-25 06:30:00,22.9,17.4,29.92,NNE,23,3.4,5.4,79,0.00,,,0.00,WUHU216HW,2013-03-25 05:30:00,
2013-03-25 06:35:00,22.9,17.4,29.92,NE,45,4.7,4.7,79,0.00,,,0.00,WUHU216HW,2013-03-25 05:35:00,
2013-03-25 06:40:00,22.7,17.5,29.92,ENE,68,3.8,6.9,80,0.00,,,0.00,WUHU216HW,2013-03-25 05:40:00,
2013-03-25 06:45:00,22.7,17.7,29.92,ENE,68,2.0,6.9,81,0.00,,,0.00,WUHU216HW,2013-03-25 05:45:00,
2013-03-25 06:50:00,22.7,17.7,29.92,ENE,68,2.5,4.9,81,0.00,,,0.00,WUHU216HW,2013-03-25 05:50:00,
2013-03-25 06:55:00,22.7,18.0,29.92,North,0,2.5,4.7,82,0.00,,,0.00,WUHU216HW,2013-03-25 05:55:00,
2013-03-25 07:00:00,22.7,18.0,29.92,NE,45,1.1,4.7,82,0.00,,,0.00,WUHU216HW,2013-03-25 06:00:00,
2013-03-25 07:05:00,22.7,18.0,29.92,NE,45,2.5,4.7,82,0.00,,,0.00,WUHU216HW,2013-03-25 06:05:00,
2013-03-25 07:10:00,22.7,18.0,29.92,SE,135,3.1,4.7,82,0.00,,,0.00,WUHU216HW,2013-03-25 06:10:00,
2013-03-25 07:15:00,22.9,18.5,29.92,NE,45,1.8,5.1,83,0.00,,,0.00,WUHU216HW,2013-03-25 06:15:00,
2013-03-25 07:20:00,22.9,18.5,29.92,ENE,68,4.0,6.0,83,0.00,,,0.00,WUHU216HW,2013-03-25 06:20:00,
2013-03-25 07:25:00,22.9,18.7,29.92,NE,45,2.5,6.0,84,0.00,,,0.00,WUHU216HW,2013-03-25 06:25:00,
2013-03-25 07:30:00,22.9,18.7,29.92,East,90,4.7,6.7,84,0.00,,,0.00,WUHU216HW,2013-03-25 06:30:00,
2013-03-25 07:35:00,23.2,19.1,29.92,East,90,4.9,6.7,84,0.00,,,0.00,WUHU216HW,2013-03-25 06:35:00,
2013-03-25 07:41:00,23.4,19.0,29.92,ENE,68,4.5,5.1,83,0.00,,,0.00,WUHU216HW,2013-03-25 06:41:00,
2013-03-25 07:46:00,23.2,18.8,29.93,NNE,23,2.2,8.5,83,0.00,,,0.00,WUHU216HW,2013-03-25 06:46:00,
2013-03-25 07:51:00,23.2,18.8,29.92,NNE,23,1.1,8.5,83,0.00,,,0.00,WUHU216HW,2013-03-25 06:51:00,
2013-03-25 07:56:00,23.4,19.3,29.93,East,90,4.3,8.3,84,0.00,,,0.00,WUHU216HW,2013-03-25 06:56:00,
2013-03-25 08:02:00,23.4,19.0,29.92,East,90,5.4,6.7,83,0.00,,,0.00,WUHU216HW,2013-03-25 07:02:00,
2013-03-25 08:07:00,23.4,19.3,29.92,East,90,2.2,5.8,84,0.00,,,0.00,WUHU216HW,2013-03-25 07:07:00,
2013-03-25 08:12:00,23.6,19.2,29.92,NNE,23,2.5,4.7,83,0.00,,,0.00,WUHU216HW,2013-03-25 07:12:00,
2013-03-25 08:18:00,23.6,18.9,29.93,East,90,1.8,4.9,82,0.00,,,0.00,WUHU216HW,2013-03-25 07:18:00,
2013-03-25 08:23:00,23.6,18.9,29.93,NNE,23,4.3,6.9,82,0.00,,,0.00,WUHU216HW,2013-03-25 07:23:00,
2013-03-25 08:28:00,23.6,18.9,29.92,NE,45,7.6,7.6,82,0.00,,,0.00,WUHU216HW,2013-03-25 07:28:00,
2013-03-25 08:33:00,23.8,19.1,29.93,NE,45,1.6,7.6,82,0.00,,,0.00,WUHU216HW,2013-03-25 07:33:00,
2013-03-25 08:38:00,23.9,19.3,29.93,ENE,68,4.9,7.6,82,0.00,,,0.00,WUHU216HW,2013-03-25 07:38:00,
2013-03-25 08:43:00,23.9,18.7,29.93,East,90,6.7,8.1,80,0.00,,,0.00,WUHU216HW,2013-03-25 07:43:00,
2013-03-25 08:48:00,23.9,19.0,29.92,NNE,23,3.4,8.1,81,0.00,,,0.00,WUHU216HW,2013-03-25 07:48:00,
2013-03-25 08:53:00,24.1,18.9,29.92,North,0,2.0,7.4,80,0.00,,,0.00,WUHU216HW,2013-03-25 07:53:00,
2013-03-25 08:58:00,24.1,18.5,29.92,East,90,7.6,8.1,79,0.00,,,0.00,WUHU216HW,2013-03-25 07:58:00,
2013-03-25 09:03:00,24.1,18.5,29.92,ENE,68,2.9,8.1,79,0.00,,,0.00,WUHU216HW,2013-03-25 08:03:00,
2013-03-25 09:08:00,24.3,18.5,29.92,ESE,113,5.6,7.6,78,0.00,,,0.00,WUHU216HW,2013-03-25 08:08:00,
2013-03-25 09:13:00,24.5,18.9,29.92,ENE,68,6.0,6.9,79,0.00,,,0.00,WUHU216HW,2013-03-25 08:13:00,
2013-03-25 09:18:00,24.5,18.3,29.92,ENE,68,5.1,8.1,77,0.00,,,0.00,WUHU216HW,2013-03-25 08:18:00,
2013-03-25 09:23:00,24.5,18.6,29.92,ENE,68,8.3,8.3,78,0.00,,,0.00,WUHU216HW,2013-03-25 08:23:00,
2013-03-25 09:28:00,24.3,17.8,29.92,ENE,68,8.5,11.6,76,0.00,,,0.00,WUHU216HW,2013-03-25 08:28:00,
2013-03-25 09:33:00,24.5,18.3,29.92,NE,45,4.0,11.6,77,0.00,,,0.00,WUHU216HW,2013-03-25 08:33:00,
2013-03-25 09:38:00,24.8,18.0,29.91,ENE,68,5.4,8.7,75,0.00,,,0.00,WUHU216HW,2013-03-25 08:38:00,
2013-03-25 09:43:00,24.8,18.0,29.91,ENE,68,4.9,9.8,75,0.00,,,0.00,WUHU216HW,2013-03-25 08:43:00,
2013-03-25 09:48:00,24.8,18.0,29.91,NE,45,9.6,9.8,75,0.00,,,0.00,WUHU216HW,2013-03-25 08:48:00,
2013-03-25 09:53:00,25.0,18.2,29.91,ENE,68,4.7,9.6,75,0.00,,,0.00,WUHU216HW,2013-03-25 08:53:00,
2013-03-25 09:58:00,25.2,18.4,29.91,SE,135,9.6,9.6,75,0.00,,,0.00,WUHU216HW,2013-03-25 08:58:00,
2013-03-25 10:03:00,25.4,18.6,29.91,East,90,2.2,9.6,75,0.00,,,0.00,WUHU216HW,2013-03-25 09:03:00,
2013-03-25 10:08:00,25.6,19.0,29.91,ENE,68,7.4,9.6,76,0.00,,,0.00,WUHU216HW,2013-03-25 09:08:00,
2013-03-25 10:14:00,25.4,18.8,29.91,East,90,5.4,10.5,76,0.00,,,0.00,WUHU216HW,2013-03-25 09:14:00,
2013-03-25 10:19:00,25.6,19.4,29.91,ENE,68,5.4,10.5,77,0.00,,,0.00,WUHU216HW,2013-03-25 09:19:00,
2013-03-25 10:24:00,25.7,19.2,29.91,East,90,2.5,8.9,76,0.00,,,0.00,WUHU216HW,2013-03-25 09:24:00,
2013-03-25 10:29:00,25.7,19.2,29.91,East,90,6.3,8.9,76,0.00,,,0.00,WUHU216HW,2013-03-25 09:29:00,
2013-03-25 10:34:00,25.9,19.0,29.91,ESE,113,3.4,7.8,75,0.00,,,0.00,WUHU216HW,2013-03-25 09:34:00,
2013-03-25 10:39:00,26.5,19.9,29.91,ESE,113,9.8,11.4,76,0.00,,,0.00,WUHU216HW,2013-03-25 09:39:00,
2013-03-25 10:44:00,26.6,19.7,29.91,SSE,158,5.8,11.4,75,0.00,,,0.00,WUHU216HW,2013-03-25 09:44:00,
2013-03-25 10:49:00,26.8,19.3,29.91,East,90,15.4,15.4,73,0.00,,,0.00,WUHU216HW,2013-03-25 09:49:00,
2013-03-25 10:54:00,26.6,20.0,29.91,NNE,23,7.8,15.4,76,0.00,,,0.00,WUHU216HW,2013-03-25 09:54:00,
2013-03-25 10:59:00,26.5,20.2,29.91,East,90,6.9,15.4,77,0.00,,,0.00,WUHU216HW,2013-03-25 09:59:00,
2013-03-25 11:04:00,26.3,20.4,29.90,North,0,5.4,9.8,78,0.00,,,0.00,WUHU216HW,2013-03-25 10:04:00,
2013-03-25 11:09:00,26.1,20.4,29.90,NE,45,8.3,8.3,79,0.00,,,0.00,WUHU216HW,2013-03-25 10:09:00,
2013-03-25 11:14:00,25.9,20.3,29.90,NNE,23,6.9,8.9,79,0.00,,,0.00,WUHU216HW,2013-03-25 10:14:00,
2013-03-25 11:19:00,25.9,20.6,29.90,NE,45,6.3,8.9,80,0.00,,,0.00,WUHU216HW,2013-03-25 10:19:00,
2013-03-25 11:24:00,25.9,20.6,29.89,ENE,68,3.4,10.7,80,0.00,,,0.00,WUHU216HW,2013-03-25 10:24:00,
2013-03-25 11:29:00,25.7,20.4,29.90,NE,45,7.2,10.7,80,0.00,,,0.00,WUHU216HW,2013-03-25 10:29:00,
2013-03-25 11:34:00,26.1,20.8,29.90,North,0,6.7,8.3,80,0.00,,,0.00,WUHU216HW,2013-03-25 10:34:00,
2013-03-25 11:39:00,26.1,20.4,29.89,ENE,68,6.9,11.4,79,0.00,,,0.00,WUHU216HW,2013-03-25 10:39:00,
2013-03-25 11:44:00,26.3,21.3,29.89,NNE,23,4.7,11.4,81,0.00,,,0.00,WUHU216HW,2013-03-25 10:44:00,
2013-03-25 11:49:00,26.5,20.8,29.89,SE,135,8.5,8.5,79,0.00,,,0.00,WUHU216HW,2013-03-25 10:49:00,
2013-03-25 11:54:00,26.8,20.5,29.90,NE,45,6.3,13.4,77,0.00,,,0.00,WUHU216HW,2013-03-25 10:54:00,
2013-03-25 11:59:00,26.6,20.0,29.90,NNE,23,7.8,13.4,76,0.00,,,0.00,WUHU216HW,2013-03-25 10:59:00,
2013-03-25 12:04:00,26.8,20.8,29.89,SE,135,7.6,11.2,78,0.00,,,0.00,WUHU216HW,2013-03-25 11:04:00,
2013-03-25 12:09:00,26.6,20.6,29.89,North,0,5.4,8.9,78,0.00,,,0.00,WUHU216HW,2013-03-25 11:09:00,
2013-03-25 12:14:00,26.5,20.4,29.89,NE,45,5.8,13.2,78,0.00,,,0.00,WUHU216HW,2013-03-25 11:14:00,
2013-03-25 12:19:00,26.8,20.8,29.89,ESE,113,9.8,13.2,78,0.00,,,0.00,WUHU216HW,2013-03-25 11:19:00,
2013-03-25 12:24:00,26.8,20.8,29.89,ESE,113,8.5,11.4,78,0.00,,,0.00,WUHU216HW,2013-03-25 11:24:00,
2013-03-25 12:29:00,26.8,21.2,29.89,ENE,68,8.5,9.8,79,0.00,,,0.00,WUHU216HW,2013-03-25 11:29:00,
2013-03-25 12:34:00,27.0,21.3,29.89,NE,45,1.8,9.6,79,0.00,,,0.00,WUHU216HW,2013-03-25 11:34:00,
2013-03-25 12:39:00,26.8,21.2,29.89,NNE,23,6.0,8.7,79,0.00,,,0.00,WUHU216HW,2013-03-25 11:39:00,
2013-03-25 12:44:00,26.5,21.1,29.89,ESE,113,5.6,10.5,80,0.00,,,0.00,WUHU216HW,2013-03-25 11:44:00,
2013-03-25 12:49:00,27.0,21.6,29.88,North,0,5.8,10.5,80,0.00,,,0.00,WUHU216HW,2013-03-25 11:49:00,
2013-03-25 12:54:00,27.5,21.5,29.88,East,90,6.3,10.5,78,0.00,,,0.00,WUHU216HW,2013-03-25 11:54:00,
2013-03-25 12:59:00,27.7,21.1,29.88,NE,45,4.0,10.1,76,0.00,,,0.00,WUHU216HW,2013-03-25 11:59:00,
2013-03-25 13:04:00,27.7,20.8,29.88,ENE,68,11.0,11.0,75,0.00,,,0.00,WUHU216HW,2013-03-25 12:04:00,
2013-03-25 13:09:00,27.5,20.4,29.88,East,90,2.7,11.0,74,0.00,,,0.00,WUHU216HW,2013-03-25 12:09:00,
2013-03-25 13:14:00,27.9,20.7,29.88,East,90,8.9,11.0,74,0.00,,,0.00,WUHU216HW,2013-03-25 12:14:00,
2013-03-25 13:19:00,28.3,20.4,29.87,NNE,23,5.4,9.4,72,0.00,,,0.00,WUHU216HW,2013-03-25 12:19:00,
2013-03-25 13:25:00,28.4,20.9,29.87,North,0,2.7,11.4,73,0.00,,,0.00,WUHU216HW,2013-03-25 12:25:00,
2013-03-25 13:30:00,28.6,20.4,29.87,NE,45,4.3,11.4,71,0.00,,,0.00,WUHU216HW,2013-03-25 12:30:00,
2013-03-25 13:35:00,28.4,20.3,29.87,ESE,113,6.9,15.4,71,0.00,,,0.00,WUHU216HW,2013-03-25 12:35:00,
2013-03-25 13:40:00,28.6,20.2,29.87,ESE,113,7.6,15.4,70,0.00,,,0.00,WUHU216HW,2013-03-25 12:40:00,
2013-03-25 13:45:00,28.8,20.6,29.87,ENE,68,5.4,12.8,71,0.00,,,0.00,WUHU216HW,2013-03-25 12:45:00,
2013-03-25 13:50:00,29.2,21.0,29.87,East,90,6.3,12.8,71,0.00,,,0.00,WUHU216HW,2013-03-25 12:50:00,
2013-03-25 13:55:00,29.2,20.3,29.87,ENE,68,5.4,12.1,69,0.00,,,0.00,WUHU216HW,2013-03-25 12:55:00,
2013-03-25 14:00:00,29.0,20.4,29.87,East,90,4.3,12.1,70,0.00,,,0.00,WUHU216HW,2013-03-25 13:00:00,
2013-03-25 14:05:00,29.0,19.7,29.87,NNE,23,6.9,9.4,68,0.00,,,0.00,WUHU216HW,2013-03-25 13:05:00,
2013-03-25 14:10:00,29.2,19.5,29.87,East,90,7.2,10.7,67,0.00,,,0.00,WUHU216HW,2013-03-25 13:10:00,
2013-03-25 14:15:00,29.2,19.5,29.87,ESE,113,8.3,10.7,67,0.00,,,0.00,WUHU216HW,2013-03-25 13:15:00,
2013-03-25 14:20:00,29.2,19.5,29.87,NE,45,6.5,11.2,67,0.00,,,0.00,WUHU216HW,2013-03-25 13:20:00,
2013-03-25 14:25:00,29.2,19.2,29.87,ENE,68,8.5,11.2,66,0.00,,,0.00,WUHU216HW,2013-03-25 13:25:00,
2013-03-25 14:30:00,29.2,19.9,29.87,East,90,9.4,10.3,68,0.00,,,0.00,WUHU216HW,2013-03-25 13:30:00,
2013-03-25 14:35:00,29.9,19.8,29.87,NE,45,6.3,10.5,66,0.00,,,0.00,WUHU216HW,2013-03-25 13:35:00,
2013-03-25 14:40:00,30.1,20.0,29.87,SSE,158,8.3,10.5,66,0.00,,,0.00,WUHU216HW,2013-03-25 13:40:00,
2013-03-25 14:45:00,30.1,19.6,29.86,ENE,68,7.4,10.5,65,0.00,,,0.00,WUHU216HW,2013-03-25 13:45:00,
2013-03-25 14:50:00,30.4,19.3,29.86,East,90,8.9,10.5,63,0.00,,,0.00,WUHU216HW,2013-03-25 13:50:00,
2013-03-25 14:55:00,30.2,18.7,29.86,ENE,68,3.6,12.3,62,0.00,,,0.00,WUHU216HW,2013-03-25 13:55:00,
2013-03-25 15:00:00,30.6,18.7,29.86,ENE,68,4.5,12.3,61,0.00,,,0.00,WUHU216HW,2013-03-25 14:00:00,
2013-03-25 15:05:00,31.0,19.8,29.86,NE,45,8.9,10.1,63,0.00,,,0.00,WUHU216HW,2013-03-25 14:05:00,
2013-03-25 15:10:00,31.3,19.1,29.85,NNE,23,4.5,13.0,60,0.00,,,0.00,WUHU216HW,2013-03-25 14:10:00,
2013-03-25 15:15:00,31.3,18.3,29.85,NNE,23,10.7,13.0,58,0.00,,,0.00,WUHU216HW,2013-03-25 14:15:00,
2013-03-25 15:20:00,31.1,18.5,29.86,NE,45,4.9,12.1,59,0.00,,,0.00,WUHU216HW,2013-03-25 14:20:00,
2013-03-25 15:25:00,30.8,17.7,29.85,NE,45,6.0,15.2,58,0.00,,,0.00,WUHU216HW,2013-03-25 14:25:00,
2013-03-25 15:30:00,30.8,17.7,29.86,ENE,68,6.0,15.2,58,0.00,,,0.00,WUHU216HW,2013-03-25 14:30:00,
2013-03-25 15:35:00,30.6,17.6,29.86,East,90,7.2,10.3,58,0.00,,,0.00,WUHU216HW,2013-03-25 14:35:00,
2013-03-25 15:40:00,30.4,17.7,29.86,ENE,68,7.6,10.1,59,0.00,,,0.00,WUHU216HW,2013-03-25 14:40:00,
2013-03-25 15:45:00,30.4,17.7,29.86,NE,45,4.3,10.1,59,0.00,,,0.00,WUHU216HW,2013-03-25 14:45:00,
2013-03-25 15:50:00,30.4,17.7,29.85,East,90,4.0,10.1,59,0.00,,,0.00,WUHU216HW,2013-03-25 14:50:00,
2013-03-25 15:55:00,30.6,17.9,29.85,ENE,68,4.7,10.1,59,0.00,,,0.00,WUHU216HW,2013-03-25 14:55:00,
2013-03-25 16:00:00,30.6,18.4,29.85,ENE,68,3.4,11.4,60,0.00,,,0.00,WUHU216HW,2013-03-25 15:00:00,
2013-03-25 16:05:00,30.6,18.4,29.86,NE,45,8.3,11.4,60,0.00,,,0.00,WUHU216HW,2013-03-25 15:05:00,
2013-03-25 16:10:00,30.4,17.7,29.85,East,90,7.2,11.6,59,0.00,,,0.00,WUHU216HW,2013-03-25 15:10:00,
2013-03-25 16:15:00,30.2,17.6,29.85,ESE,113,6.9,12.1,59,0.00,,,0.00,WUHU216HW,2013-03-25 15:15:00,
2013-03-25 16:20:00,30.1,17.5,29.85,ENE,68,10.5,12.3,59,0.00,,,0.00,WUHU216HW,2013-03-25 15:20:00,
2013-03-25 16:25:00,29.9,17.3,29.85,ESE,113,8.5,13.0,59,0.00,,,0.00,WUHU216HW,2013-03-25 15:25:00,
2013-03-25 16:30:00,29.5,16.9,29.85,NNE,23,6.7,13.0,59,0.00,,,0.00,WUHU216HW,2013-03-25 15:30:00,
2013-03-25 16:35:00,29.5,17.7,29.85,East,90,4.9,11.4,61,0.00,,,0.00,WUHU216HW,2013-03-25 15:35:00,
2013-03-25 16:40:00,29.5,16.9,29.85,ENE,68,6.3,11.4,59,0.00,,,0.00,WUHU216HW,2013-03-25 15:40:00,
2013-03-25 16:45:00,29.5,17.4,29.85,ENE,68,6.3,8.3,60,0.00,,,0.00,WUHU216HW,2013-03-25 15:45:00,
2013-03-25 16:50:00,29.3,17.6,29.85,ENE,68,5.4,9.4,61,0.00,,,0.00,WUHU216HW,2013-03-25 15:50:00,
2013-03-25 16:55:00,29.2,17.7,29.85,NE,45,3.6,9.4,62,0.00,,,0.00,WUHU216HW,2013-03-25 15:55:00,
2013-03-25 17:00:00,29.2,17.7,29.85,SE,135,7.2,7.6,62,0.00,,,0.00,WUHU216HW,2013-03-25 16:00:00,
2013-03-25 17:05:00,28.8,17.8,29.85,ENE,68,5.8,8.5,63,0.00,,,0.00,WUHU216HW,2013-03-25 16:05:00,
2013-03-25 17:10:00,28.6,18.0,29.84,SE,135,8.3,8.5,64,0.00,,,0.00,WUHU216HW,2013-03-25 16:10:00,
2013-03-25 17:15:00,28.6,18.0,29.85,ESE,113,7.4,8.3,64,0.00,,,0.00,WUHU216HW,2013-03-25 16:15:00,
2013-03-25 17:20:00,28.4,17.5,29.85,NE,45,7.2,8.3,63,0.00,,,0.00,WUHU216HW,2013-03-25 16:20:00,
2013-03-25 17:26:00,28.4,17.1,29.85,ENE,68,3.6,8.1,62,0.00,,,0.00,WUHU216HW,2013-03-25 16:26:00,
2013-03-25 17:31:00,28.4,17.5,29.85,North,0,4.9,8.1,63,0.00,,,0.00,WUHU216HW,2013-03-25 16:31:00,
2013-03-25 17:36:00,28.3,17.3,29.85,NE,45,4.7,7.6,63,0.00,,,0.00,WUHU216HW,2013-03-25 16:36:00,
2013-03-25 17:41:00,28.1,17.5,29.85,NE,45,9.2,11.4,64,0.00,,,0.00,WUHU216HW,2013-03-25 16:41:00,
2013-03-25 17:47:00,28.1,17.5,29.85,ENE,68,2.7,11.4,64,0.00,,,0.00,WUHU216HW,2013-03-25 16:47:00,
2013-03-25 17:52:00,28.3,17.6,29.85,ENE,68,5.4,9.2,64,0.00,,,0.00,WUHU216HW,2013-03-25 16:52:00,
2013-03-25 17:57:00,28.3,18.0,29.85,ENE,68,5.4,6.7,65,0.00,,,0.00,WUHU216HW,2013-03-25 16:57:00,
2013-03-25 18:02:00,28.1,17.5,29.85,NE,45,6.3,8.5,64,0.00,,,0.00,WUHU216HW,2013-03-25 17:02:00,
2013-03-25 18:07:00,28.1,17.5,29.85,ENE,68,10.1,10.5,64,0.00,,,0.00,WUHU216HW,2013-03-25 17:07:00,
2013-03-25 18:12:00,27.9,17.6,29.85,NE,45,6.9,10.5,65,0.00,,,0.00,WUHU216HW,2013-03-25 17:12:00,
2013-03-25 18:17:00,27.9,18.0,29.85,ENE,68,6.3,10.5,66,0.00,,,0.00,WUHU216HW,2013-03-25 17:17:00,
2013-03-25 18:22:00,27.7,17.8,29.85,ENE,68,5.1,10.5,66,0.00,,,0.00,WUHU216HW,2013-03-25 17:22:00,
2013-03-25 18:27:00,27.7,17.8,29.85,ENE,68,6.3,8.5,66,0.00,,,0.00,WUHU216HW,2013-03-25 17:27:00,
2013-03-25 18:32:00,27.7,17.8,29.85,East,90,5.6,6.3,66,0.00,,,0.00,WUHU216HW,2013-03-25 17:32:00,
2013-03-25 18:37:00,27.7,17.8,29.85,North,0,5.1,6.3,66,0.00,,,0.00,WUHU216HW,2013-03-25 17:37:00,
2013-03-25 18:42:00,27.7,17.8,29.85,East,90,4.0,7.8,66,0.00,,,0.00,WUHU216HW,2013-03-25 17:42:00,
2013-03-25 18:47:00,27.7,17.8,29.85,North,0,8.9,8.9,66,0.00,,,0.00,WUHU216HW,2013-03-25 17:47:00,
2013-03-25 18:52:00,27.5,17.6,29.85,ENE,68,6.5,8.9,66,0.00,,,0.00,WUHU216HW,2013-03-25 17:52:00,
2013-03-25 18:57:00,27.5,17.6,29.85,NE,45,4.5,6.5,66,0.00,,,0.00,WUHU216HW,2013-03-25 17:57:00,
2013-03-25 19:02:00,27.5,17.6,29.85,NE,45,3.8,6.9,66,0.00,,,0.00,WUHU216HW,2013-03-25 18:02:00,
2013-03-25 19:07:00,27.5,17.6,29.85,ENE,68,4.7,6.9,66,0.00,,,0.00,WUHU216HW,2013-03-25 18:07:00,
2013-03-25 19:12:00,27.5,18.0,29.85,NE,45,2.5,6.0,67,0.00,,,0.00,WUHU216HW,2013-03-25 18:12:00,
2013-03-25 19:17:00,27.5,18.0,29.85,North,0,2.7,6.0,67,0.00,,,0.00,WUHU216HW,2013-03-25 18:17:00,
2013-03-25 19:22:00,27.4,17.8,29.85,NE,45,2.5,8.7,67,0.00,,,0.00,WUHU216HW,2013-03-25 18:22:00,
2013-03-25 19:27:00,27.4,18.2,29.85,ENE,68,3.1,10.1,68,0.00,,,0.00,WUHU216HW,2013-03-25 18:27:00,
2013-03-25 19:32:00,27.4,18.2,29.85,ESE,113,4.3,10.1,68,0.00,,,0.00,WUHU216HW,2013-03-25 18:32:00,
2013-03-25 19:37:00,27.4,18.2,29.85,NE,45,4.0,9.6,68,0.00,,,0.00,WUHU216HW,2013-03-25 18:37:00,
2013-03-25 19:42:00,27.4,18.2,29.85,NNE,23,3.4,9.6,68,0.00,,,0.00,WUHU216HW,2013-03-25 18:42:00,
2013-03-25 19:47:00,27.2,18.0,29.84,NE,45,7.6,8.9,68,0.00,,,0.00,WUHU216HW,2013-03-25 18:47:00,
2013-03-25 19:52:00,27.2,17.6,29.84,SSE,158,3.1,9.2,67,0.00,,,0.00,WUHU216HW,2013-03-25 18:52:00,
2013-03-25 19:57:00,27.2,17.6,29.84,East,90,4.7,11.2,67,0.00,,,0.00,WUHU216HW,2013-03-25 18:57:00,
2013-03-25 20:02:00,27.2,18.0,29.84,ESE,113,5.4,11.2,68,0.00,,,0.00,WUHU216HW,2013-03-25 19:02:00,
2013-03-25 20:07:00,27.0,17.8,29.85,ESE,113,4.7,10.5,68,0.00,,,0.00,WUHU216HW,2013-03-25 19:07:00,
2013-03-25 20:12:00,27.0,17.5,29.85,NNE,23,4.7,10.5,67,0.00,,,0.00,WUHU216HW,2013-03-25 19:12:00,
2013-03-25 20:17:00,27.0,17.5,29.84,SE,135,6.5,8.1,67,0.00,,,0.00,WUHU216HW,2013-03-25 19:17:00,
2013-03-25 20:23:00,27.0,17.5,29.84,NW,315,2.5,10.5,67,0.00,,,0.00,WUHU216HW,2013-03-25 19:23:00,
2013-03-25 20:28:00,27.0,17.5,29.85,ESE,113,3.4,10.5,67,0.00,,,0.00,WUHU216HW,2013-03-25 19:28:00,
2013-03-25 20:33:00,27.0,17.1,29.84,NE,45,8.9,10.1,66,0.00,,,0.00,WUHU216HW,2013-03-25 19:33:00,
2013-03-25 20:38:00,27.0,17.1,29.85,ESE,113,7.4,8.9,66,0.00,,,0.00,WUHU216HW,2013-03-25 19:38:00,
2013-03-25 20:43:00,27.0,17.1,29.85,ESE,113,3.4,8.9,66,0.00,,,0.00,WUHU216HW,2013-03-25 19:43:00,
2013-03-25 20:48:00,27.0,17.1,29.84,East,90,5.1,8.9,66,0.00,,,0.00,WUHU216HW,2013-03-25 19:48:00,
2013-03-25 20:53:00,27.2,17.3,29.84,ENE,68,7.2,9.4,66,0.00,,,0.00,WUHU216HW,2013-03-25 19:53:00,
2013-03-25 20:58:00,27.2,16.6,29.84,NNE,23,7.6,9.4,64,0.00,,,0.00,WUHU216HW,2013-03-25 19:58:00,
2013-03-25 21:03:00,27.2,16.6,29.84,NE,45,4.9,9.8,64,0.00,,,0.00,WUHU216HW,2013-03-25 20:03:00,
2013-03-25 21:08:00,27.2,16.9,29.84,NNE,23,4.0,9.8,65,0.00,,,0.00,WUHU216HW,2013-03-25 20:08:00,
2013-03-25 21:13:00,27.2,16.6,29.84,ESE,113,4.7,5.4,64,0.00,,,0.00,WUHU216HW,2013-03-25 20:13:00,
2013-03-25 21:18:00,27.0,16.4,29.84,SE,135,4.0,4.7,64,0.00,,,0.00,WUHU216HW,2013-03-25 20:18:00,
2013-03-25 21:23:00,27.2,16.6,29.83,NNW,338,3.6,5.6,64,0.00,,,0.00,WUHU216HW,2013-03-25 20:23:00,
2013-03-25 21:28:00,27.0,16.4,29.83,ENE,68,6.7,6.7,64,0.00,,,0.00,WUHU216HW,2013-03-25 20:28:00,
2013-03-25 21:33:00,27.0,16.4,29.83,NE,45,4.7,6.7,64,0.00,,,0.00,WUHU216HW,2013-03-25 20:33:00,
2013-03-25 21:38:00,27.0,16.4,29.83,East,90,2.7,8.7,64,0.00,,,0.00,WUHU216HW,2013-03-25 20:38:00,
2013-03-25 21:43:00,27.0,16.4,29.83,ENE,68,6.5,8.7,64,0.00,,,0.00,WUHU216HW,2013-03-25 20:43:00,
2013-03-25 21:48:00,27.0,16.4,29.83,NE,45,5.8,11.4,64,0.00,,,0.00,WUHU216HW,2013-03-25 20:48:00,
2013-03-25 21:53:00,27.0,16.0,29.82,ESE,113,7.6,11.4,63,0.00,,,0.00,WUHU216HW,2013-03-25 20:53:00,
2013-03-25 21:58:00,27.0,16.4,29.82,ESE,113,3.4,11.2,64,0.00,,,0.00,WUHU216HW,2013-03-25 20:58:00,
2013-03-25 22:03:00,27.0,16.7,29.82,East,90,3.4,7.6,65,0.00,,,0.00,WUHU216HW,2013-03-25 21:03:00,
2013-03-25 22:08:00,27.0,16.4,29.82,East,90,1.8,6.9,64,0.00,,,0.00,WUHU216HW,2013-03-25 21:08:00,
2013-03-25 22:13:00,27.0,16.0,29.82,NE,45,7.2,9.6,63,0.00,,,0.00,WUHU216HW,2013-03-25 21:13:00,
2013-03-25 22:18:00,27.0,16.4,29.82,East,90,9.2,9.6,64,0.00,,,0.00,WUHU216HW,2013-03-25 21:18:00,
2013-03-25 22:23:00,27.0,16.7,29.82,East,90,4.0,9.2,65,0.00,,,0.00,WUHU216HW,2013-03-25 21:23:00,
2013-03-25 22:28:00,26.8,15.8,29.82,NE,45,4.7,11.6,63,0.00,,,0.00,WUHU216HW,2013-03-25 21:28:00,
2013-03-25 22:33:00,27.0,16.4,29.82,East,90,2.7,11.6,64,0.00,,,0.00,WUHU216HW,2013-03-25 21:33:00,
2013-03-25 22:38:00,26.8,15.8,29.82,ENE,68,3.4,6.9,63,0.00,,,0.00,WUHU216HW,2013-03-25 21:38:00,
2013-03-25 22:43:00,26.8,16.2,29.82,North,0,3.8,8.7,64,0.00,,,0.00,WUHU216HW,2013-03-25 21:43:00,
2013-03-25 22:48:00,26.8,15.5,29.82,East,90,6.0,10.5,62,0.00,,,0.00,WUHU216HW,2013-03-25 21:48:00,
2013-03-25 22:53:00,26.8,15.8,29.82,ESE,113,3.6,10.5,63,0.00,,,0.00,WUHU216HW,2013-03-25 21:53:00,
2013-03-25 22:58:00,26.8,15.8,29.81,ENE,68,2.9,9.2,63,0.00,,,0.00,WUHU216HW,2013-03-25 21:58:00,
2013-03-25 23:03:00,26.6,15.7,29.81,NE,45,5.4,10.7,63,0.00,,,0.00,WUHU216HW,2013-03-25 22:03:00,
2013-03-25 23:08:00,26.6,15.3,29.81,ENE,68,5.6,10.7,62,0.00,,,0.00,WUHU216HW,2013-03-25 22:08:00,
2013-03-25 23:13:00,26.6,15.7,29.81,NE,45,6.3,9.2,63,0.00,,,0.00,WUHU216HW,2013-03-25 22:13:00,
2013-03-25 23:18:00,26.6,15.3,29.81,East,90,5.8,9.2,62,0.00,,,0.00,WUHU216HW,2013-03-25 22:18:00,
2013-03-25 23:24:00,26.6,15.3,29.81,NNE,23,8.1,9.2,62,0.00,,,0.00,WUHU216HW,2013-03-25 22:24:00,
2013-03-25 23:29:00,26.6,16.0,29.81,East,90,1.6,8.7,64,0.00,,,0.00,WUHU216HW,2013-03-25 22:29:00,
2013-03-25 23:34:00,26.6,15.7,29.81,NE,45,3.8,6.9,63,0.00,,,0.00,WUHU216HW,2013-03-25 22:34:00,
2013-03-25 23:39:00,26.6,15.3,29.81,ENE,68,6.3,9.2,62,0.00,,,0.00,WUHU216HW,2013-03-25 22:39:00,
2013-03-25 23:44:00,26.6,15.3,29.81,NE,45,6.5,9.2,62,0.00,,,0.00,WUHU216HW,2013-03-25 22:44:00,
2013-03-25 23:49:00,26.5,15.1,29.81,ENE,68,1.8,6.5,62,0.00,,,0.00,WUHU216HW,2013-03-25 22:49:00,
2013-03-25 23:54:00,26.5,15.1,29.81,North,0,5.4,7.6,62,0.00,,,0.00,WUHU216HW,2013-03-25 22:54:00,
2013-03-25 23:59:00,26.5,15.1,29.81,ENE,68,7.6,11.9,62,0.00,,,0.00,WUHU216HW,2013-03-25 22:59:00,